Weather Roundup
Issued by NWS Chicago, IL

Home | Current Version | Previous Version | Text Only | Print | Product List | Glossary Off
Versions: 1 2 3 4 5 6 7 8 9 10 11 12 13 14 15 16 17 18 19 20 21 22 23 24 25 26 27 28 29 30 31 32 33 34 35 36 37 38 39 40 41 42 43 44 45 46 47 48 49 50

000
NZUS59 KLOT 290421
HRRLOT

CHICAGO AREA WEATHER ROUNDUP
NATIONAL WEATHER SERVICE CHICAGO/ROMEOVILLE IL
1100 PM CDT THU MAY 28 2015

NOTE: "FAIR" INDICATES FEW OR NO CLOUDS BELOW 12,000 FEET WITH NO
SIGNIFICANT WEATHER AND/OR OBSTRUCTIONS TO VISIBILITY.

* THESE STATIONS ARE NOT UNDER NWS QUALITY CONTROL. THEY ALSO MAY NOT
  REPORT WEATHER SUCH AS PRECIPITATION OR FOG.

ILZ005-006-012>014-019>023-290500-
NORTHEAST ILLINOIS

CITY           SKY/WX    TMP DP  RH WIND       PRES   REMARKS
OHARE          MOCLDY    67  54  63 E6        30.06F
MIDWAY         MOCLDY    69  55  60 SE6       30.06F
AURORA         MOCLDY    67  54  63 E8        30.05F
LANSING*       CLEAR     67  55  65 SE5       30.07F
JOLIET*        PTCLDY    68  59  72 E5        30.05F
WAUKEGAN       PTCLDY    59  53  80 E6        30.07F
DUPAGE AIRPORT PTCLDY    68  54  60 E7        30.05F
WHEELING       PTCLDY    65  54  67 CALM      30.08F
KANKAKEE*      PTCLDY    70  54  56 SE6       30.07F
MORRIS*        PTCLDY    70  55  59 SE7       30.03F
LEWIS AIRPORT* PTCLDY    67  56  66 E8        30.06F
NORTHERLY IS     N/A     61  53  75 CALM        N/A
$$

WIZ051-052-058>065-066-070>072-290500-
SOUTHEAST WISCONSIN

CITY           SKY/WX    TMP DP  RH WIND       PRES   REMARKS
MILWAUKEE      PTCLDY    63  53  70 SE8       30.07F
KENOSHA*       PTCLDY    62  54  74 SE7       30.08F
RACINE*        MOCLDY    61  53  75 SE6       30.09F
BURLINGTON     PTCLDY    62  53  71 SE7       30.07F
WAUKESHA       PTCLDY    64  52  63 SE8       30.08F
WEST BEND      CLEAR     63  52  67 CALM      30.08S
$$

INZ001>003-010>013-019-020-290500-
NORTHWEST INDIANA

CITY           SKY/WX    TMP DP  RH WIND       PRES   REMARKS
GARY*          CLEAR     60  59  94 E3        30.07F
MICHIGAN CITY* NOT AVBL
RENSSELAER*    NOT AVBL
VALPARAISO     CLEAR     69  57  65 E8        30.09F
$$

LMZ740>746-290500-
SOUTHERN LAKE MICHIGAN

STATION/POSITION TIME  SKY/WX   TEMP WIND        PRES    VSBY
                                AIR  DIR/SP/G
                 (UTC)          (F)  (DEG/KT/KT) (MB)    (MI)
HARRISON CRIB    0400            60  160/  5/  7   N/A
BURNHAM HARBOR   0400            60   CALM  /  5   N/A
CALUMET HARBOR   0318            61   80/  5/  7   N/A
BURNS HARBOR     0300            74  110/  9/ 14 1019.6R
MICHIGAN CITY    0400            72   90/  9/ 12   N/A
$$

ABBREVIATIONS USED IN REMARKS
   TC - TEMPERATURE IN CELSIUS
  WCI - WIND CHILL INDEX
   HX - HEAT INDEX
  VSB - VISIBILITY
$$



USA.gov is the U.S. government's official web portal to all federal, state and local government web resources and services.